EHI
0 0 0 0 0 0 0 0 0 0 0 0 0 0 0 0 0 0 0 0 0 0 0 0 0 0 0 0 0 0 0 0 0 0 0 0 0 0
0 0 0 0 0 0 0 0 0 0 0 0 0 0 0 0 0 0 0 0 0 0 0 0 0 0 0 0 0 0 0 0 0 0 0 0 0 0
0 0 0 0 0 0 0 0 0 0 0 0 0 0 0 0 0 0 0 0 0 0 0 0 0 0 0 0 0 0 0 0 0 0 0 0 0 0
0 0 0 0 0 0 0 0 0 0 0 0 0 0 0 0 0 0 0 0 0 0 0 0 0 0 0 0 0 0 0 0 0 0 0 0 0 0
0 0 0 0 0 0 0 0 0 0 0 0 0 0 0 0 0 0 0 0 0 0 0 0 0 0 0 0 0 0 0 0 0 0 0 0 0 0
0 0 0 0 0 0 0 0 0 0 0 0 0 0 0 0 0 0 0 0 0 0 0 0 0 0 0 0 0 0 0 0 0 0 0 0 0 0
0 0 0 0 0 0 0 0 0 0 0 0 0 0 0 0 0 0 0 0 0 0 0 0 0 0 0 0 0 0 0 0 0 0 0 0 0 0
0 0 0 0 0 0 0 0 0 0 0 0 0 0 0 0 0 0 0 0 0 0 0 0 0 0 0 0 0 0 0 0 0 0 0 0 0 0
0 0 0 0 0 0 0 0 0 0 0 0 0 0 0 0 0 0 0 0 0 0 0 0 0 0 0 0 0 0 0 0 0 0 0 0 0 0
0 0 0 0 0 0 0 0 0 0 0 0 0 0 0 0 0 0 0 0 0 0 0 0 0 0 0 0 0 0 0 0 0 0 0 0 0 0
0 0 0 0 0 0 0 0 0 0 0 0 0 0 0 0 0 0 0 0 0 0 0 0 0 0 0 0 0 0 0 0 0 0 0 0 0 0
0 0 0 0 0 0 0 0 0 0 0 0 0 0 0 0 0 0 0 0 0 0 0 0 0 0 0 0 0 0 0 0 0 0 0 0 0 0
0 0 0 0 0 0 0 0 0 0 0 0 0 0 0 0 0 0 0 0 0 0 0 0 0 0 0 0 0 0 0 0 0 0 0 0 0 0
0 0 0 0 0 0 0 0 0 0 0 0 0 0 0 0 0 0 0 0 0 0 0 0 0 0 0 0 0 0 0 0 0 0 0 0 0 0
0 0 0 0 0 0 0 0 0 0 0 0 0 0 0 0 0 0 0 0 0 0 0 0 0 0 0 0 0 0 0 0 0 0 0 0 0 0
0 0 0 0 0 0 0 0 0 0 0 0 0 0 0 0 0 0 0 0 0 0 0 0 0 0 0 0 0 0 0 0 0 0 0 0 0 0
0 0 0 0 0 0 0 0 0 0 0 0 0 0 0 0 0 0 0 0 0 0 0 0 0 0 0 0 0 0 0 0 0 0 0 0 0 0
0 0 0 0 0 0 0 0 0 0 0 0 0 0 0 0 0 0 0 0 0 0 0 0 0 0 0 0 0 0 0 0 0 0 0 0 0 0
0 0 0 0 0 0 0 0 0 0 0 0 0 0 0 0 0 0 0 0 0 0 0 0 0 0 0 0 0 0 0 0 0 0 0 0 0 0
0 0 0 0 0 0 0 0 0 0 0 0 0 0 0 0 0 0 0 0 0 0 0 0 0 0 0 0 0 0 0 0 0 0 0 0 0 0
0 0 0 0 0 0 0 0 0 0 0 0 0 0 0 0 0 0 0 0 0 0 0 0 0 0 0 0 0 0 0 0 0 0 0 0 0 0
0 0 0 0 0 0 0 0 0 0 0 0 0 0 0 0 0 0 0 0 0 0 0 0 0 0 0 0 0 0 0 0 0 0 0 0 0 0
0 0 0 0 0 0 0 0 0 0 0 0 0 0 0 0 0 0 0 0 0 0 0 0 0 0 0 0 0 0 0 0 0 0 0 0 0 0
Wind_Speed
15 16 15 13 12 11 11 12 13 16 15 11 10 10 11 10 14 12 10 16 19 19 18 16 17 15 13 12 11 11 11 11 12 13 14 14 15 15
12 15 16 13 12 11 11 12 13 16 17 8 9 8 10 9 13 11 11 17 19 20 19 18 17 15 14 13 12 11 10 9 10 12 13 13 14 14
12 14 17 14 13 12 11 12 13 13 18 15 7 7 8 7 6 6 7 9 11 20 20 19 17 17 16 14 12 10 8 8 10 11 12 13 14 15
14 14 16 13 15 14 13 14 14 15 16 19 10 6 7 7 7 8 7 8 8 17 20 20 19 18 16 13 11 10 9 9 10 11 12 13 14 15
12 14 16 16 17 14 15 15 13 13 14 15 14 6 4 3 5 6 7 6 9 13 19 19 18 16 14 12 10 10 10 10 11 12 13 14 15 15
11 13 15 16 17 16 15 16 15 15 15 15 13 7 4 3 4 6 7 8 8 8 12 13 14 15 13 11 11 11 11 11 12 13 14 15 15 15
12 13 14 17 19 18 16 15 14 14 14 14 14 9 8 6 8 8 10 8 7 5 6 6 6 5 6 9 12 12 13 13 13 13 15 15 15 16
14 14 14 14 17 20 22 24 22 18 16 15 14 14 15 14 10 10 9 8 7 6 7 5 5 5 5 5 10 13 14 13 13 14 16 16 15 16
14 14 14 12 16 15 18 21 22 25 25 19 18 18 16 15 14 14 12 8 7 7 6 4 4 5 5 7 14 15 14 14 14 15 16 16 17 18
14 15 16 16 14 17 17 17 17 17 18 17 18 17 14 12 17 15 11 7 7 4 4 5 4 4 5 5 13 14 14 14 13 14 15 16 17 18
16 15 17 17 20 21 19 19 19 14 10 11 13 12 13 15 16 12 11 10 5 4 2 4 3 2 2 2 6 12 12 12 13 15 16 16 17 17
15 15 18 20 23 24 20 19 20 15 6 3 2 3 3 10 17 12 13 11 6 5 5 5 3 3 1 2 1 2 3 8 13 14 15 15 16 8
15 15 15 24 29 30 27 20 22 18 6 6 6 6 6 6 6 6 6 7 7 5 7 6 4 3 3 1 2 2 2 2 3 6 11 16 16 11
15 15 17 29 33 33 26 24 28 18 5 7 7 7 7 7 8 8 9 7 6 6 9 6 4 4 3 2 3 3 2 2 3 5 5 11 12 15
15 24 31 35 31 23 22 26 19 6 7 7 8 7 8 9 10 10 10 9 10 8 6 4 5 4 4 3 2 2 2 3 4 5 5 4 4 5
16 22 28 26 20 17 16 10 2 3 4 5 7 8 8 9 9 8 7 7 6 4 4 5 5 5 3 3 4 5 4 4 3 3 5 6 5 6
21 15 13 14 13 10 6 3 1 2 4 6 8 9 9 9 8 7 6 6 5 5 4 2 3 4 5 4 5 7 6 6 7 7 6 6 5 6
20 12 13 13 13 13 9 3 1 2 4 6 7 8 9 9 8 7 6 4 5 4 4 3 2 2 3 5 10 7 6 7 6 5 5 7 10 6
13 12 12 12 12 12 9 3 1 3 5 6 7 8 8 8 7 7 7 5 4 3 3 3 3 2 1 4 5 6 5 5 5 6 6 7 10 8
11 12 13 12 12 11 8 2 3 5 6 7 8 8 8 8 7 7 6 5 4 3 2 2 2 3 4 3 4 5 7 7 6 7 8 8 9 13
12 13 13 12 11 9 5 1 2 4 7 8 8 9 8 8 7 6 5 8 5 3 2 2 3 4 2 0 3 6 6 10 12 10 10 9 8 6
13 13 14 13 12 7 2 0 2 3 6 6 7 7 8 7 7 7 5 5 3 3 2 1 1 2 2 3 6 8 10 9 11 16 16 14 6 5
13 14 14 13 12 6 1 2 2 3 3 5 6 7 7 7 6 5 5 4 4 2 1 1 2 1 3 4 6 8 11 11 9 8 6 10 15 20
Wind_Direction
245 245 245 246 241 238 238 236 244 258 255 234 229 223 221 218 212 203 196 201 204 210 210 200 192 197 207 222 236 250 265 279 287 288 289 291 292 294
247 246 246 245 244 240 240 241 238 246 259 243 230 225 220 219 207 196 195 190 196 201 195 188 191 201 212 221 230 245 261 274 281 283 285 287 289 293
265 257 253 246 244 241 240 241 242 241 252 257 232 226 213 203 187 188 177 179 190 193 189 189 195 204 213 220 228 239 247 262 273 279 283 284 285 288
285 281 274 263 253 247 242 241 241 239 245 256 249 217 203 198 188 189 185 187 189 194 192 194 201 208 214 219 226 231 239 256 266 272 277 279 279 281
287 288 286 279 270 259 249 244 242 239 238 246 249 222 189 157 172 198 197 202 193 195 195 198 205 213 216 223 229 236 243 251 259 267 271 271 272 276
287 284 284 282 278 273 265 254 246 241 237 238 242 220 181 161 164 182 196 203 201 186 193 196 207 213 219 228 236 243 245 249 257 263 266 266 267 273
299 292 287 283 279 278 276 272 261 250 242 238 237 221 194 174 195 195 201 191 196 177 178 187 190 200 214 236 240 236 239 244 249 258 264 264 268 274
308 303 297 289 286 283 276 270 263 258 253 247 241 233 219 207 196 192 185 170 194 185 172 191 180 199 199 198 227 235 238 241 250 259 260 262 268 274
312 310 308 302 298 294 291 282 268 255 247 248 252 245 232 211 193 193 192 183 180 163 153 181 189 209 199 211 225 235 240 245 249 250 255 262 267 271
316 314 313 312 307 301 299 295 285 268 252 246 249 251 243 219 194 189 177 123 84 118 137 161 186 199 199 206 231 242 251 248 244 246 256 264 268 271
320 318 314 311 309 311 310 304 295 281 272 262 256 255 239 201 170 148 148 146 137 163 153 149 169 166 188 226 246 251 243 231 238 252 261 265 267 270
319 315 310 308 310 314 311 305 297 287 251 206 130 106 144 165 163 161 159 154 129 151 168 158 155 147 210 271 249 233 233 244 260 267 270 273 272 265
318 313 308 306 306 305 303 295 285 284 233 177 138 118 105 103 105 105 114 140 132 145 160 150 144 155 171 244 302 272 247 245 265 276 282 280 275 266
311 307 303 301 299 298 297 287 286 279 191 159 152 149 140 125 113 103 93 82 84 120 138 132 133 149 145 175 265 289 293 283 275 268 255 268 273 273
304 301 301 299 296 294 288 289 287 228 173 170 165 154 140 129 120 109 100 93 87 98 117 113 124 137 152 180 226 257 304 277 249 251 253 245 241 248
307 304 303 301 297 289 293 298 274 176 166 154 141 134 130 130 130 131 134 130 119 120 127 137 147 157 185 212 234 252 231 265 290 284 273 263 247 237
313 310 318 326 325 318 313 329 22 122 119 121 131 133 134 132 133 136 139 140 140 147 152 167 187 192 202 205 241 250 253 253 256 264 264 268 254 240
322 323 327 327 326 324 315 301 355 90 109 120 128 132 135 136 138 142 145 144 138 132 141 151 127 30 336 271 231 240 245 252 256 253 253 275 279 254
330 325 326 326 325 323 317 302 91 108 114 122 128 131 132 134 142 148 151 145 130 124 130 122 116 119 31 303 300 234 230 256 264 263 256 259 273 275
328 322 323 324 323 324 324 329 124 127 127 131 135 136 138 142 149 153 151 144 136 127 126 133 165 175 189 227 276 287 275 271 268 268 270 265 266 274
326 322 320 322 323 322 325 357 142 145 145 144 144 142 141 142 145 147 147 154 136 129 152 212 221 168 150 40 293 282 266 255 254 264 274 275 277 270
325 322 320 321 324 320 315 151 148 150 151 146 142 136 134 136 141 142 140 139 129 128 151 237 230 139 160 233 265 278 286 284 275 279 274 262 248 239
323 322 320 322 325 316 260 189 168 153 144 137 131 129 129 129 128 130 134 124 113 109 92 348 325 251 232 240 263 281 288 296 306 309 292 272 259 253